Home > Weather > Tilburg > Past weeks

Flag for Netherlands Weather for the Past 2 Weeks in Tilburg, Netherlands

Now
48 °F

Mostly cloudy.


Feels Like: 45 °F
Forecast: 35 / 60 °F
Wind: 7 mph from West

Location: Gilze-Rijen

Current Time: May 3, 2016 at 5:48:09 AM

Latest Report: May 3, 2016 at 4:55 AM


Visibility: N/A

Pressure: 30.09 "Hg

Humidity: 94%

Dew Point: 46 °F

Location of TilburgLocation

Historic Weather in Tilburg — Graph

°F

Tilburg Temperature Yesterday

Maximum temperature yesterday: 64 °F (at 2:55 PM)
Minimum temperature yesterday: 34 °F (at 3:55 AM)
Average temperature yesterday: 53 °F

High & Low Weather Summary for the Past Weeks

 TemperatureHumidityPressure
High64 °F (Apr 21, 2:25 PM)100% (Apr 18, 3:25 AM)30.48 "Hg (Apr 18, 3:25 AM)
Low30 °F (Apr 28, 5:25 AM)26% (May 2, 5:25 PM)29.50 "Hg (Apr 26, 6:25 AM)
Average46 °F72%30.04 "Hg
* Reported Apr 18 3:25 AM — May 3 3:55 AM, Tilburg, Weather by CustomWeather, © 2016

Note: Actual official high and low records may vary slightly from our data, if they occured in-between our weather recording intervals... More about our weather records

Advertising

Tilburg Weather History for the Previous 24 Hours

Scroll right to see more
 ConditionsComfort  
Time TempWeatherWind HumidityBarometerVisibility
3:55 AM
Tue, May 3
48 °FPartly cloudy.9 mph94%30.07 "HgN/A
3:04 AM50 °FLight rain. Mostly cloudy.17 mph94%30.07 "HgN/A
2:25 AM54 °FRain showers. Overcast.7 mph88%30.04 "Hg4 mi
1:55 AM54 °FPartly cloudy.7 mph82%30.07 "HgN/A
1:25 AM54 °FPartly cloudy.7 mph82%30.07 "HgN/A
12:55 AM55 °FOvercast.8 mph77%30.07 "HgN/A
11:55 PM
Mon, May 2
55 °FPassing clouds.7 mph77%30.09 "HgN/A
11:25 PM55 °FPartly cloudy.6 mph77%30.09 "HgN/A
10:55 PM55 °FPartly cloudy.5 mph77%30.09 "HgN/A
10:25 PM57 °FMostly cloudy.5 mph72%30.09 "HgN/A
9:55 PM57 °FPartly sunny.6 mph72%30.09 "HgN/A
9:25 PM57 °FBroken clouds.6 mph72%30.09 "HgN/A
8:55 PM57 °FOvercast.7 mph72%30.09 "HgN/A
8:25 PM57 °FBroken clouds.6 mph72%30.09 "HgN/A
7:55 PM59 °FMostly cloudy.7 mph68%30.09 "HgN/A
7:25 PM61 °FOvercast.12 mph63%30.09 "HgN/A
6:55 PM63 °FPartly sunny.7 mph39%30.12 "HgN/A
6:25 PM63 °FOvercast.8 mph34%30.12 "HgN/A
5:55 PM63 °FScattered clouds.9 mph32%30.12 "HgN/A
5:25 PM64 °FPassing clouds.9 mph26%30.12 "HgN/A
4:55 PM64 °FMild.9 mph32%30.12 "HgN/A
4:25 PM64 °FScattered clouds.9 mph32%30.15 "HgN/A
3:55 PM64 °FBroken clouds.9 mph34%30.15 "HgN/A
3:25 PM64 °FPassing clouds.10 mph37%30.15 "HgN/A
2:55 PM64 °FPassing clouds.9 mph40%30.18 "HgN/A
2:25 PM63 °FPassing clouds.9 mph42%30.18 "HgN/A
1:55 PM63 °FPassing clouds.9 mph49%30.21 "HgN/A
1:25 PM61 °FPassing clouds.9 mph48%30.21 "HgN/A
12:55 PM61 °FPassing clouds.9 mph48%30.21 "HgN/A
12:25 PM59 °FRefreshingly cool.10 mph48%30.24 "HgN/A
11:55 AM59 °FPassing clouds.9 mph45%30.24 "HgN/A
11:25 AM57 °FRefreshingly cool.9 mph48%30.24 "HgN/A
10:55 AM57 °FRefreshingly cool.8 mph48%30.24 "HgN/A
10:25 AM55 °FRefreshingly cool.7 mph51%30.27 "HgN/A
9:55 AM54 °FCool.7 mph47%30.27 "HgN/A
9:25 AM52 °FCool.5 mph58%30.27 "HgN/A
8:55 AM50 °FCool.3 mph67%30.27 "HgN/A
8:25 AM46 °FCool.2 mph71%30.27 "HgN/A
6:55 AM36 °FChilly.1 mph87%30.30 "HgN/A
5:55 AM34 °FChilly.1 mph100%30.30 "HgN/A
5:25 AM34 °FChilly.1 mph100%30.30 "HgN/A
Weather by CustomWeather, © 2016

See weather overviewHow to use our weather pages